Station 46072 (LLNR 27510) - CENTRAL ALEUTIANS 230 NM SW Dutch Harbor Image indicating link to RSS feed of recent meteorological observations for station 46072


Conditions at 46072 as of
(4:10 am HAST)
1410 GMT on 04/16/2024:
     

Click on the graph icon in the table below to see a time series plot of the last five days of that observation.

5-day plot - Wind Direction Wind Direction (WDIR): W ( 270 deg true )
5-day plot - Wind Speed Wind Speed (WSPD): 9.7 kts
5-day plot - Wind Gust Wind Gust (GST): 15.5 kts
5-day plot - Atmospheric Pressure Atmospheric Pressure (PRES):29.88 in
5-day plot - Water Temperature Water Temperature (WTMP): 39.6 °F
5-day plot - Wind Speed at 10 Meters Wind Speed at 10 meters (WSPD10M): 11.7 kts
5-day plot - Wind Speed at 20 Meters Wind Speed at 20 meters (WSPD20M): 11.7 kts
5-day plot -  Wind Speed, Wind Gust and Atmospheric Pressure Combined plot of Wind Speed, Gust, and Air Pressure
Supplemental Measurements
Highest 1-minute Wind Speed
Time (HAST)5-day plot - 1-Minute Wind Speed WSPD 5-day plot - 1-Minute Wind Direction WDIR
4:06 am 11.7 kts-
Previous observations
TIME
(HAST)
5-day plot - Wind Direction
WDIR
 
5-day plot - Wind Speed
WSPD
kts
5-day plot - Wind Gust
GST
kts
5-day plot - Wave Height
WVHT
ft
5-day plot - Dominant Wave Period
DPD
sec
5-day plot - Average Wave Period
APD
sec
5-day plot - Mean Wave Direction
MWD
 
5-day plot - Atmospheric Pressure
PRES
in
5-day plot - Pressure Tendency
PTDY
in
5-day plot - Air Temperature
ATMP
°F
5-day plot - Water Temperature
WTMP
°F
5-day plot - Dew Point
DEWP
°F
5-day plot - Salinity
SAL
psu
5-day plot - Visibility
VIS
nmi
5-day plot - Tide (above MLLW)
TIDE
ft
2024-04-16 04:00 am W 9.7 11.7----29.88-0.02- 39.6----
2024-04-16 03:50 am W 11.7 15.5 8.9 97.9 SW29.88-- 39.6----
2024-04-16 03:40 am W 9.7 13.6 8.9-7.9 SW29.88-- 39.6----
2024-04-16 03:30 am W 7.8 11.7----29.88-- 39.6----
2024-04-16 03:20 am W 7.8 11.7 9.2 108.0WSW29.88-- 39.6----
2024-04-16 03:10 amWSW 5.8 9.7 9.2-8.0WSW29.89-- 39.6----
2024-04-16 03:00 am W 5.8 9.7----29.89-0.01- 39.6----
2024-04-16 02:50 am W 5.8 7.8 9.5 108.2WSW29.88-- 39.6----
2024-04-16 02:40 am W 7.8 11.7 9.5-8.2WSW29.88-- 39.6----
2024-04-16 02:30 am W 7.8 11.7----29.89-- 39.6----
2024-04-16 02:20 amWSW 7.8 9.7 8.5 117.8 S29.89-- 39.6----
2024-04-16 02:10 amWSW 7.8 11.7 8.5-7.8 S29.89-- 39.4----
2024-04-16 02:00 am W 7.8 11.7----29.89-0.01- 39.6----
2024-04-16 01:50 am W 7.8 11.7 9.2 108.0 S29.90-- 39.6----
2024-04-16 01:40 am W 7.8 11.7----29.89-- 39.6----
2024-04-16 01:30 am W 7.8 11.7----29.90-- 39.4----
2024-04-16 01:20 am W 9.7 11.7 9.5 108.1 SW29.90-- 39.6----
2024-04-16 01:10 amWNW 7.8 11.7 9.5-8.1 SW29.90-- 39.6----
2024-04-16 01:00 amWNW 7.8 9.7----29.90+0.00- 39.6----
2024-04-16 12:50 am NW 5.8 9.7 9.2 98.1SSW29.90-- 39.4----
2024-04-16 12:40 am NW 5.8 11.7----29.90-- 39.4----
2024-04-16 12:30 amNNW 7.8 11.7----29.90-- 39.4----
2024-04-16 12:20 amNNW 7.8 11.7 10.2 98.4SSW29.90-- 39.4----
2024-04-16 12:10 am NW 9.7 13.6 10.2-8.4SSW29.90-- 39.4----
2024-04-16 12:00 am NW 9.7 13.6----29.90+0.00- 39.4----
2024-04-15 11:50 pm NW 9.7 13.6 8.5 117.9SSW29.90-- 39.4----
2024-04-15 11:40 pm NW 9.7 13.6----29.90-- 39.4----
2024-04-15 11:30 pm NW 9.7 15.5----29.90-- 39.6----
2024-04-15 11:20 pm NW 11.7 17.5 8.9 108.0 SW29.90-- 39.4----
2024-04-15 11:10 pm NW 9.7 13.6 8.9-8.0 SW29.90-- 39.4----
2024-04-15 11:00 pm NW 9.7 13.6----29.91+0.02- 39.6----
2024-04-15 10:50 pm NW 11.7 15.5 9.5 108.2 SW29.91-- 39.6----
2024-04-15 10:40 pm NW 9.7 15.5 9.5-8.2 SW29.90-- 39.6----
2024-04-15 10:30 pm NW 7.8 11.7----29.90-- 39.6----
2024-04-15 10:20 pm NW 7.8 11.7 8.9 117.8SSW29.90-- 39.6----
2024-04-15 10:10 pm NW 7.8 11.7 8.9-7.8SSW29.90-- 39.6----
2024-04-15 10:00 pm NW 9.7 13.6----29.90+0.02- 39.6----
2024-04-15 09:50 pm NW 9.7 13.6 9.8 108.2WSW29.90-- 39.6----
2024-04-15 09:40 pm NW 9.7 15.5----29.90-- 39.6----
2024-04-15 09:30 pm NW 9.7 15.5----29.91-- 39.6----
2024-04-15 09:20 pm NW 9.7 13.6 9.5 108.0SSW29.90-- 39.6----
2024-04-15 09:10 pm NW 9.7 13.6----29.90-- 39.6----
2024-04-15 09:00 pmNNW 9.7 13.6----29.90+0.04- 39.6----
2024-04-15 08:50 pmNNW 11.7 15.5 10.2 107.8 SW29.89-- 39.6----
2024-04-15 08:40 pmNNW 11.7 15.5----29.89-- 39.6----
2024-04-15 08:30 pmNNW 9.7 13.6----29.88-- 39.6----
2024-04-15 08:20 pmNNW 9.7 15.5 10.2 107.7WSW29.88-- 39.6----
2024-04-15 08:10 pmNNW 11.7 15.5----29.88-- 39.6----
2024-04-15 08:00 pm NW 11.7 15.5----29.88+0.04- 39.6----
2024-04-15 07:50 pm NW 11.7 15.5 9.5 97.4 SW29.88-- 39.6----
2024-04-15 07:40 pmNNW 11.7 15.5----29.88-- 39.6----
2024-04-15 07:30 pm NW 11.7 15.5----29.88-- 39.6----
2024-04-15 07:20 pm NW 11.7 15.5 10.2 107.7 SW29.88-- 39.6----
2024-04-15 07:10 pm NW 11.7 17.5 10.2-7.7 SW29.88-- 39.6----
2024-04-15 07:00 pmNNW 13.6 17.5----29.88+0.03- 39.6----
2024-04-15 06:50 pmNNW 13.6 17.5 10.8 107.7SSW29.87-- 39.6----
2024-04-15 06:40 pmNNW 11.7 17.5----29.87-- 39.6----
2024-04-15 06:30 pmNNW 11.7 15.5----29.86-- 39.6----
2024-04-15 06:20 pm NW 11.7 15.5 11.2 117.7SSW29.86-- 39.6----
2024-04-15 06:10 pmNNW 11.7 15.5 11.2-7.7SSW29.86-- 39.6----
2024-04-15 06:00 pmNNW 11.7 17.5----29.85+0.02- 39.6----
2024-04-15 05:50 pmNNW 13.6 17.5 11.2 107.9SSW29.85-- 39.6----
2024-04-15 05:40 pmNNW 13.6 17.5 11.2-7.9SSW29.85-- 39.6----
2024-04-15 05:30 pmNNW 13.6 17.5----29.85-- 39.6----
2024-04-15 05:20 pmNNW 13.6 19.4 11.2 107.7 SW29.85-- 39.6----
2024-04-15 05:10 pmNNW 13.6 19.4 11.2-7.7 SW29.85-- 39.6----
2024-04-15 05:00 pmNNW 13.6 17.5----29.85+0.02- 39.6----
2024-04-15 04:50 pmNNW 13.6 17.5 11.8 107.9SSW29.85-- 39.6----
2024-04-15 04:40 pmNNW 13.6 19.4 11.8-7.9SSW29.85-- 39.6----
2024-04-15 04:30 pmNNW 13.6 19.4----29.85-- 39.6----
2024-04-15 04:20 pmNNW 13.6 17.5 11.5 107.8SSW29.84-- 39.6----
2024-04-15 04:10 pmNNW 13.6 17.5 11.5-7.8SSW29.84-- 39.6----
2024-04-15 04:00 pm NW 13.6 17.5----29.84+0.05- 39.6----
2024-04-15 03:50 pm NW 13.6 17.5 11.8 107.8WSW29.84-- 39.6----
2024-04-15 03:40 pm NW 15.5 21.4 11.8-7.8WSW29.84-- 39.6----
2024-04-15 03:30 pm NW 13.6 17.5----29.84-- 39.6----
2024-04-15 03:20 pm NW 15.5 21.4 11.5 107.8SSW29.83-- 39.6----
2024-04-15 03:10 pm NW 15.5 21.4 11.5-7.8SSW29.84-- 39.6----
2024-04-15 03:00 pm NW 15.5 25.3----29.83+0.04- 39.6----
2024-04-15 02:50 pm NW 15.5 21.4 13.8 118.4 S29.83-- 39.6----
2024-04-15 02:40 pm NW 13.6 21.4----29.83-- 39.6----
2024-04-15 02:30 pmNNW 13.6 23.3----29.83-- 39.6----
2024-04-15 02:20 pm NW 15.5 21.4 13.1 108.1SSW29.83-- 39.6----
2024-04-15 02:10 pm NW 13.6 19.4 13.1-8.1SSW29.82-- 39.6----
2024-04-15 02:00 pm NW 15.5 19.4----29.82+0.03- 39.6----
2024-04-15 01:50 pm NW 15.5 21.4 14.8 108.2SSW29.82-- 39.6----
2024-04-15 01:40 pm NW 15.5 21.4----29.81-- 39.6----
2024-04-15 01:10 pm NW 15.5 23.3 14.4-8.1 S29.80-- 39.6----
2024-04-15 01:00 pm NW 15.5 21.4----29.80+0.03- 39.4----
2024-04-15 12:50 pm NW 15.5 23.3 15.4 108.4SSW29.80-- 39.6----
2024-04-15 12:40 pm NW 15.5 25.3----29.80-- 39.6----
2024-04-15 12:30 pm NW 17.5 23.3----29.80-- 39.6----
2024-04-15 12:20 pm NW 13.6 19.4 14.1 118.0 S29.80-- 39.6----
2024-04-15 12:10 pm NW 13.6 19.4 14.1-8.0 S29.80-- 39.6----
2024-04-15 12:00 pm NW 15.5 21.4----29.80+0.05- 39.6----
2024-04-15 11:50 am NW 13.6 21.4 13.1 118.0 S29.80-- 39.6----
2024-04-15 11:40 am NW 13.6 19.4----29.80-- 39.4----
2024-04-15 11:30 am NW 11.7 17.5----29.80-- 39.4----
2024-04-15 11:20 am NW 13.6 19.4 14.8 118.1 S29.80-- 39.4----
2024-04-15 11:10 am NW 13.6 17.5 14.8-8.1 S29.80-- 39.4----
2024-04-15 11:00 am NW 11.7 19.4----29.79+0.06- 39.4----
2024-04-15 10:50 am NW 11.7 17.5 15.7 118.1 S29.79-- 39.4----
2024-04-15 10:40 amNNW 11.7 19.4 15.7-8.1 S29.79-- 39.4----
2024-04-15 10:30 amNNW 9.7 17.5----29.78-- 39.4----
2024-04-15 10:20 amNNW 9.7 15.5 14.8 117.9 S29.78-- 39.4----
2024-04-15 10:10 amNNW 9.7 17.5 14.8-7.9 S29.77-- 39.4----
2024-04-15 10:00 amNNW 9.7 17.5----29.77+0.06- 39.4----
2024-04-15 09:50 amNNW 9.7 17.5 16.7 118.1 S29.76-- 39.4----
2024-04-15 09:40 am NW 9.7 15.5----29.76-- 39.4----
2024-04-15 09:30 amWNW 9.7 15.5----29.76-- 39.4----
2024-04-15 09:20 amWNW 11.7 15.5 16.7 118.0 S29.75-- 39.4----
2024-04-15 09:10 amWNW 11.7 17.5 16.7-8.0 S29.75-- 39.4----
2024-04-15 09:00 amWNW 11.7 17.5----29.75+0.06- 39.2----
2024-04-15 08:50 amWNW 11.7 19.4 15.1 118.0SSW29.75-- 39.2----
2024-04-15 08:40 amWNW 13.6 19.4 15.1-8.0SSW29.74-- 39.2----
2024-04-15 08:30 am W 13.6 17.5----29.74-- 39.2----
2024-04-15 08:20 am W 15.5 19.4 15.4 118.0 S29.73-- 39.2----
2024-04-15 08:10 am W 13.6 21.4 15.4-8.0 S29.73-- 39.2----
2024-04-15 08:00 am W 13.6 17.5----29.73+0.07- 39.2----
2024-04-15 07:50 am W 13.6 19.4 16.1 118.2SSW29.72-- 39.2----
2024-04-15 07:40 am W 15.5 21.4----29.72-- 39.2----
2024-04-15 07:30 am W 15.5 23.3----29.72-- 39.2----
2024-04-15 07:20 am W 15.5 21.4 17.1 118.3 S29.71-- 39.2----
2024-04-15 07:10 am W 17.5 23.3 17.1-8.3 S29.71-- 39.2----
2024-04-15 07:00 am W 15.5 19.4----29.71+0.06- 39.2----
2024-04-15 06:50 am W 17.5 21.4 14.8 117.7SSW29.71-- 39.2----
2024-04-15 06:40 am W 15.5 21.4 14.8-7.7SSW29.71-- 39.2----
2024-04-15 06:30 am W 17.5 23.3----29.70-- 39.2----
2024-04-15 06:20 am W 17.5 23.3 18.0 118.4SSW29.70-- 39.2----
2024-04-15 06:10 am W 17.5 23.3 18.0-8.4SSW29.70-- 39.2----
2024-04-15 06:00 am W 19.4 25.3----29.69+0.04- 39.2----
2024-04-15 05:50 am W 19.4 23.3 17.4 118.1SSW29.69-- 39.2----
2024-04-15 05:40 am W 19.4 25.3----29.68-- 39.2----
2024-04-15 05:30 am W 21.4 29.1----29.67-- 39.2----
2024-04-15 05:20 am W 21.4 27.2 17.7 128.5SSW29.67-- 39.2----
2024-04-15 05:10 am W 21.4 31.1 17.7-8.5SSW29.67-- 39.2----
2024-04-15 05:00 amWSW 19.4 25.3----29.66+0.00- 39.2----
2024-04-15 04:50 amWSW 19.4 25.3 19.4 118.7SSW29.66-- 39.2----
2024-04-15 04:40 amWSW 21.4 27.2----29.65-- 39.2----
2024-04-15 04:30 amWSW 21.4 27.2----29.66-- 39.2----
2024-04-15 04:20 amWSW 19.4 27.2 20.3 128.9SSW29.65-- 39.2----
2024-04-15 04:10 amWSW 21.4 29.1 20.3-8.9SSW29.65-- 39.2----
2024-04-15 04:00 amWSW 21.4 29.1----29.65+0.00- 39.2----
2024-04-15 03:50 amWSW 21.4 29.1 19.4 128.7 S29.65-- 39.2----

Detailed Wave Summary
for 46072 as of (3:40 am HAST)
1340 GMT on 04/16/2024:

These wave data are displayed in rounded times.

     

Click on the graph icon in the table below to see a time series plot of the last five days of that observation.

5-day plot - Significant Wave Height Significant Wave Height (WVHT): 8.9 ft
5-day plot - Swell Height Swell Height (SwH): 8.9 ft
5-day plot - Swell Period Swell Period (SwP): 9.1 sec
5-day plot - Swell Direction Swell Direction (SwD): SW
5-day plot - Wind Wave Height Wind Wave Height (WWH): 2.0 ft
5-day plot - Wind Wave Period Wind Wave Period (WWP): 4.8 sec
5-day plot - Wind Wave Direction Wind Wave Direction (WWD): SW
5-day plot - Wave Steepness Wave Steepness (STEEPNESS): AVERAGE
5-day plot - Average Wave Period Average Wave Period (APD): 7.9 sec
Previous observations
TIME
(HAST)
5-day plot - Wave Height
WVHT
ft
5-day plot - Swell Height
SwH
ft
5-day plot - Swell Period
SwP
sec
5-day plot - Swell Direction
SwD
 
5-day plot - Wind Wave Height
WWH
ft
5-day plot - Wind Wave Period
WWP
sec
5-day plot - Wind Wave Direction
WWD
 
5-day plot - Wave Steepness
STEEPNESS
 
5-day plot - Average Wave Period
APD
sec
2024-04-16 03:10 am 9.2 9.2 10.0WSW 1.0 3.6 SSW AVERAGE 8.0
2024-04-16 02:40 am 9.5 9.5 10.0WSW 1.3 4.0 SW AVERAGE 8.2
2024-04-16 02:10 am 8.5 8.5 10.8 S 1.3 3.3 SW AVERAGE 7.8
2024-04-16 01:40 am 9.2 9.2 10.0 S 1.3 3.7 WSW AVERAGE 8.0
2024-04-16 01:10 am 9.5 9.5 10.0 SW 1.0 3.6 SW AVERAGE 8.1
2024-04-16 12:40 am 9.2 9.2 9.1SSW 1.3 3.8 NW AVERAGE 8.1
2024-04-16 12:10 am 10.2 10.2 9.1SSW 1.6 3.4 ENE STEEP 8.4
2024-04-15 11:40 pm 8.5 8.5 10.8SSW 1.3 3.8 S AVERAGE 7.9
2024-04-15 11:10 pm 8.9 8.5 10.0 SW 1.6 3.3 NNE AVERAGE 8.0
2024-04-15 10:40 pm 9.5 9.2 10.0 SW 1.3 4.0 ENE AVERAGE 8.2
2024-04-15 10:10 pm 8.9 8.9 10.8SSW 1.3 3.8 ESE AVERAGE 7.8
2024-04-15 09:40 pm 9.8 9.5 10.0WSW 2.0 4.3 WNW AVERAGE 8.2
2024-04-15 09:10 pm 9.5 9.2 10.0SSW 2.0 4.3 NNW AVERAGE 8.0
2024-04-15 08:40 pm 10.2 9.8 10.0 SW 2.6 4.8 SSW AVERAGE 7.8
2024-04-15 08:10 pm 10.2 9.8 10.0WSW 3.3 5.6 WNW AVERAGE 7.7
2024-04-15 07:40 pm 9.5 8.9 9.1 SW 3.3 4.5 N AVERAGE 7.4
2024-04-15 07:10 pm 10.2 9.5 10.0 SW 3.6 5.9 NW AVERAGE 7.7
2024-04-15 06:40 pm 10.8 10.2 10.0SSW 3.6 5.6 WNW AVERAGE 7.7
2024-04-15 06:10 pm 11.2 10.5 10.8SSW 3.3 5.3 NW AVERAGE 7.7
2024-04-15 05:40 pm 11.2 10.5 10.0SSW 4.3 6.2 WNW AVERAGE 7.9
2024-04-15 05:10 pm 11.2 10.2 10.0 SW 4.6 5.6 WNW AVERAGE 7.7
2024-04-15 04:40 pm 11.8 10.8 10.0SSW 4.6 6.2 WSW AVERAGE 7.9
2024-04-15 04:10 pm 11.5 10.5 10.0SSW 4.3 6.2 WNW AVERAGE 7.8
2024-04-15 03:40 pm 11.8 10.2 10.0WSW 5.2 6.2 WSW AVERAGE 7.8
2024-04-15 03:10 pm 11.5 10.2 10.0SSW 5.2 6.2 W AVERAGE 7.8
2024-04-15 02:40 pm 13.8 12.8 10.8 S 4.9 6.7 W AVERAGE 8.4
2024-04-15 02:10 pm 13.1 11.8 10.0SSW 5.2 5.9 WSW AVERAGE 8.1
2024-04-15 01:40 pm 14.8 13.5 10.0SSW 5.9 5.0 W STEEP 8.2
2024-04-15 01:10 pm 14.4 12.8 10.8 S 6.6 5.9 WSW AVERAGE 8.1
2024-04-15 12:40 pm 15.4 13.8 10.0SSW 7.2 6.7 WSW STEEP 8.4
2024-04-15 12:10 pm 14.1 12.8 10.8 S 5.9 6.2 W AVERAGE 8.0
2024-04-15 11:40 am 13.1 12.1 10.8 S 5.6 6.7 SW AVERAGE 8.0
2024-04-15 11:10 am 14.8 13.8 10.8 S 5.2 4.8 SW AVERAGE 8.1
2024-04-15 10:40 am 15.7 15.4 10.8 S 3.9 5.0 WSW AVERAGE 8.1
2024-04-15 10:10 am 14.8 14.4 10.8 S 3.3 3.8 W AVERAGE 7.9
2024-04-15 09:40 am 16.7 16.4 11.4 S 3.0 4.2 WNW AVERAGE 8.1
2024-04-15 09:10 am 16.7 16.1 10.8 S 4.9 4.8 WSW AVERAGE 8.0
2024-04-15 08:40 am 15.1 14.1 10.8SSW 5.6 5.6 SSW AVERAGE 8.0
2024-04-15 08:10 am 15.4 14.4 10.8 S 5.6 5.3 WSW AVERAGE 8.0
2024-04-15 07:40 am 16.1 14.4 10.8SSW 6.9 7.1 SW AVERAGE 8.2
2024-04-15 07:10 am 17.1 14.4 11.4 S 8.9 5.9 SW AVERAGE 8.3
2024-04-15 06:40 am 14.8 12.1 10.8SSW 8.2 7.7 SW AVERAGE 7.7
2024-04-15 06:10 am 18.0 15.1 11.4SSW 9.8 8.3 SW AVERAGE 8.4
2024-04-15 05:40 am 17.4 13.1 11.4SSW 11.5 7.7 SSW AVERAGE 8.1
2024-04-15 05:10 am 17.7 14.4 12.1SSW 10.2 7.7 SW AVERAGE 8.5
2024-04-15 04:40 am 19.4 13.5 11.4SSW 14.1 8.3 SSW AVERAGE 8.7
2024-04-15 04:10 am 20.3 17.4 12.1SSW 10.8 7.1 SSW AVERAGE 8.9

Plot of wave energy versus frequency (and period)